Miscellaneous Local Product
Issued by NWS Hastings, NE

Home | Current Version | Previous Version | Graphics & Text | Print | Product List | Glossary On
Versions: 1 2 3 4 5 6 7 8 9 10 11 12 13 14 15 16 17 18 19 20 21 22 23 24 25 26 27 28 29 30 31 32 33 34 35 36 37 38 39 40 41 42 43 44 45 46 47 48 49 50
000
AXUS43 KGID 010202
MISGRI

GID CWA HOURLY WEATHER ROUNDUP
NATIONAL WEATHER SERVICE HASTINGS NE
900 PM CDT FRI JUL 31 2015

NOTE: "FAIR" INDICATES FEW OR NO CLOUDS BELOW 12,000 FEET WITH NO
SIGNIFICANT WEATHER AND/OR OBSTRUCTIONS TO VISIBILITY.

...SOUTH CENTRAL NEBRASKA...

CITY           SKY/WX    TMP DP  RH WIND       PRES   REMARKS
GRAND ISLAND   CLOUDY    70  62  76 S13       30.09F
HASTINGS       MOCLDY    74  56  53 E9G21     30.12R
KEARNEY        CLEAR     72  59  64 E12       30.12R
ORD            MOCLDY    69  63  81 CALM      30.08S
YORK           CLOUDY    70  63  78 SW9       30.05F
AURORA         CLOUDY    70  63  78 S5        30.08F
LEXINGTON      CLEAR     76  62  61 E13G23    30.11R
HOLDREGE       CLEAR     73  59  62 E15G21    30.10R
HEBRON         PTCLDY    78  52  40 N9        30.08S

...NEBRASKA PANHANDLE...

CITY           SKY/WX    TMP DP  RH WIND       PRES   REMARKS
CHADRON        CLEAR     81  55  40 S8        30.08F
ALLIANCE       CLEAR     75  59  57 E8        30.14R
SCOTTSBLUFF    CLEAR     77  60  55 E7        30.14R
SIDNEY         PTCLDY    79  49  34 SE8       30.17R

...WESTERN AND NORTH CENTRAL NEBRASKA...

CITY           SKY/WX    TMP DP  RH WIND       PRES   REMARKS
VALENTINE      CLEAR     82  59  45 NE9       30.09R
AINSWORTH      CLEAR     80  65  59 E12       30.10R
ONEILL         CLEAR     80  66  62 CALM      30.08S
BROKEN BOW     PTCLDY    77  63  61 SE10      30.11F
IMPERIAL       CLEAR     81  60  48 E6        30.11R
NORTH PLATTE   PTCLDY    77  66  68 E8        30.08S
MCCOOK         PTCLDY    85  60  42 S6        30.08R

...EASTERN NEBRASKA...

CITY           SKY/WX    TMP DP  RH WIND       PRES   REMARKS
NORFOLK        CLEAR     71  62  73 CALM      30.06S
SO SIOUX CITY  CLEAR     80  68  66 NE8       30.03S
TEKAMAH        CLEAR     72  69  90 S5        30.04R
COLUMBUS       PTCLDY    68  61  77 CALM      30.04F
ALBION         CLEAR     71  63  75 CALM      30.08S
OMAHA EPPLEY   MOCLDY    79  74  84 N6        30.03R
OFFUTT AFB     MOCLDY    76  68  76 CALM      30.03R
MILLARD        MOCLDY    83  74  74 SE6       30.03R HX  90
LINCOLN        CLOUDY    76  63  64 E6        30.05R
NEBRASKA CITY  TSTM      71  65  82 SW13G23   30.10R
BEATRICE       CLOUDY    78  67  68 CALM      30.05F
FALLS CITY     MOCLDY    82  74  76 SW6       30.04R

...NORTHERN KANSAS...

CITY           SKY/WX    TMP DP  RH WIND       PRES   REMARKS
GOODLAND       PTCLDY    80  59  48 S7        30.16R
HILL CITY      PTCLDY    83  62  49 S6        30.08R
NORTON         CLEAR     82  54  36 SE7       30.08R
PHILLIPSBURG   CLEAR     86  64  48 CALM      30.06S
SMITH CENTER   CLEAR     81  64  57 SE7       30.07R
HAYS           CLEAR     82  63  51 S8        30.09R
RUSSELL        CLEAR     80  66  62 S9        30.07R
CONCORDIA      CLEAR     81  71  71 CALM      30.06R
SALINA         CLEAR     81  70  69 S6        30.06R
TOPEKA         CLEAR     82  72  71 CALM      30.04S



USA.gov is the U.S. government's official web portal to all federal, state and local government web resources and services.